| time (UTC) | temp F | wind direction | speed knots | gust knots | rain 1hr in | rain 24hr in | rain mn in | humidity % | barometer mb |
| 20260506045033 | 61 | 6 | 0.9 | 4.3 | 0.00 | 0.00 | 0.00 | 63 | 1011.5 |
| 20260506044133 | 61 | 24 | 0.9 | 4.3 | 0.00 | 0.00 | 0.00 | 62 | 1011.6 |
| 20260506043233 | 61 | 58 | 0.9 | 3.5 | 0.00 | 0.00 | 0.00 | 62 | 1011.5 |
| 20260506042333 | 61 | 73 | 0.9 | 3.5 | 0.00 | 0.00 | 0.00 | 62 | 1011.6 |
| 20260506041433 | 61 | 59 | 0.9 | 2.6 | 0.00 | 0.00 | 0.00 | 61 | 1011.6 |
| 20260506040533 | 61 | 41 | 0.9 | 2.6 | 0.00 | 0.00 | 0.00 | 61 | 1011.7 |
| 20260506035653 | 61 | 41 | 0.9 | 3.5 | 0.00 | 0.00 | 0.00 | 61 | 1011.8 |
| 20260506034733 | 61 | 46 | 0.9 | 4.3 | 0.00 | 0.00 | 0.00 | 61 | 1011.8 |
| 20260506033833 | 61 | 42 | 0.9 | 2.6 | 0.00 | 0.00 | 0.00 | 61 | 1011.9 |
| 20260506032932 | 61 | 54 | 1.7 | 3.5 | 0.00 | 0.00 | 0.00 | 60 | 1011.9 |
| 20260506032053 | 61 | 52 | 1.7 | 4.3 | 0.00 | 0.00 | 0.00 | 61 | 1012.0 |
| 20260506031133 | 61 | 33 | 1.7 | 4.3 | 0.00 | 0.00 | 0.00 | 61 | 1011.9 |
| 20260506030253 | 62 | 22 | 1.7 | 4.3 | 0.00 | 0.00 | 0.00 | 61 | 1012.0 |
| 20260506025332 | 62 | 360 | 1.7 | 4.3 | 0.00 | 0.00 | 0.00 | 60 | 1012.0 |
| 20260506024453 | 62 | 14 | 0.9 | 4.3 | 0.00 | 0.00 | 0.00 | 59 | 1012.0 |
| 20260506023532 | 62 | 2 | 1.7 | 3.5 | 0.00 | 0.00 | 0.00 | 59 | 1011.8 |
| 20260506022632 | 62 | 358 | 1.7 | 4.3 | 0.00 | 0.00 | 0.00 | 58 | 1012.0 |
| 20260506021732 | 62 | 16 | 1.7 | 6.1 | 0.00 | 0.00 | 0.00 | 58 | 1011.8 |
| 20260506020853 | 63 | 4 | 2.6 | 6.1 | 0.00 | 0.00 | 0.00 | 57 | 1011.9 |
| 20260506015932 | 63 | 356 | 1.7 | 7.0 | 0.00 | 0.00 | 0.00 | 57 | 1012.0 |
| 20260506015032 | 63 | 343 | 2.6 | 5.2 | 0.00 | 0.00 | 0.00 | 56 | 1011.9 |
| 20260506014132 | 63 | 342 | 2.6 | 7.8 | 0.00 | 0.00 | 0.00 | 56 | 1012.0 |
| 20260506013232 | 63 | 346 | 2.6 | 7.0 | 0.00 | 0.00 | 0.00 | 55 | 1012.1 |
| 20260506012332 | 63 | 357 | 2.6 | 6.1 | 0.00 | 0.00 | 0.00 | 55 | 1012.1 |
| 20260506011432 | 63 | 351 | 2.6 | 7.0 | 0.00 | 0.00 | 0.00 | 54 | 1012.2 |
| 20260506010532 | 63 | 10 | 3.5 | 7.0 | 0.00 | 0.00 | 0.00 | 54 | 1012.4 |
| 20260506005632 | 64 | 6 | 3.5 | 7.8 | 0.00 | 0.00 | 0.00 | 53 | 1012.5 |
| 20260506004732 | 64 | 4 | 3.5 | 9.6 | 0.00 | 0.00 | 0.00 | 53 | 1012.4 |
| 20260506003832 | 64 | 359 | 2.6 | 9.6 | 0.00 | 0.00 | 0.00 | 52 | 1012.4 |
| 20260506002933 | 64 | 3 | 2.6 | 7.8 | 0.00 | 0.00 | 0.00 | 52 | 1012.5 |
| 20260506002032 | 64 | 2 | 2.6 | 7.8 | 0.00 | 0.00 | 0.00 | 51 | 1012.7 |
| 20260506001132 | 64 | 12 | 2.6 | 7.8 | 0.00 | 0.00 | 0.00 | 50 | 1012.7 |
| 20260506000232 | 65 | 3 | 2.6 | 6.1 | 0.00 | 0.00 | 0.00 | 50 | 1012.7 |
| 20260505235332 | 65 | 357 | 1.7 | 4.3 | 0.00 | 0.00 | 0.00 | 50 | 1012.7 |
| 20260505234432 | 65 | 347 | 2.6 | 4.3 | 0.00 | 0.00 | 0.00 | 50 | 1012.6 |
| 20260505233532 | 65 | 1 | 2.6 | 6.1 | 0.00 | 0.00 | 0.00 | 50 | 1012.7 |
| 20260505232632 | 65 | 30 | 2.6 | 5.2 | 0.00 | 0.00 | 0.00 | 49 | 1012.7 |
| 20260505231753 | 66 | 356 | 2.6 | 5.2 | 0.00 | 0.00 | 0.00 | 48 | 1012.7 |
| 20260505230853 | 66 | 11 | 2.6 | 6.1 | 0.00 | 0.00 | 0.00 | 48 | 1012.8 |
| 20260505225932 | 66 | 359 | 2.6 | 7.8 | 0.00 | 0.00 | 0.00 | 47 | 1012.8 |
| 20260505225053 | 66 | 349 | 3.5 | 7.0 | 0.00 | 0.00 | 0.00 | 47 | 1012.7 |
| 20260505224132 | 67 | 345 | 2.6 | 7.8 | 0.00 | 0.00 | 0.00 | 46 | 1012.7 |
| 20260505223253 | 67 | 337 | 2.6 | 7.0 | 0.00 | 0.00 | 0.00 | 46 | 1012.8 |
| 20260505222332 | 67 | 334 | 2.6 | 7.0 | 0.00 | 0.00 | 0.00 | 46 | 1012.8 |
| 20260505221453 | 67 | 340 | 2.6 | 7.8 | 0.00 | 0.00 | 0.00 | 45 | 1012.8 |
| 20260505220532 | 68 | 342 | 2.6 | 6.1 | 0.00 | 0.00 | 0.00 | 45 | 1012.8 |
| 20260505215632 | 68 | 338 | 3.5 | 7.8 | 0.00 | 0.00 | 0.00 | 45 | 1012.8 |
| 20260505214753 | 68 | 337 | 3.5 | 7.8 | 0.00 | 0.00 | 0.00 | 45 | 1012.8 |
| 20260505213852 | 68 | 331 | 2.6 | 7.8 | 0.00 | 0.00 | 0.00 | 45 | 1012.8 |
| 20260505212931 | 68 | 326 | 1.7 | 6.1 | 0.00 | 0.00 | 0.00 | 44 | 1012.8 |
| 20260505212031 | 69 | 334 | 2.6 | 5.2 | 0.00 | 0.00 | 0.00 | 44 | 1012.8 |
| 20260505211131 | 69 | 339 | 2.6 | 7.0 | 0.00 | 0.00 | 0.00 | 44 | 1012.8 |
| 20260505210231 | 69 | 340 | 1.7 | 5.2 | 0.00 | 0.00 | 0.00 | 44 | 1012.7 |
| 20260505205353 | 70 | 348 | 3.5 | 7.0 | 0.00 | 0.00 | 0.00 | 43 | 1012.7 |
| 20260505204432 | 70 | 342 | 3.5 | 8.7 | 0.00 | 0.00 | 0.00 | 43 | 1012.6 |
| 20260505203552 | 70 | 344 | 3.5 | 9.6 | 0.00 | 0.00 | 0.00 | 42 | 1012.6 |
| 20260505202652 | 71 | 337 | 3.5 | 9.6 | 0.00 | 0.00 | 0.00 | 42 | 1012.5 |
| 20260505201732 | 71 | 343 | 3.5 | 8.7 | 0.00 | 0.00 | 0.00 | 41 | 1012.3 |
| 20260505200853 | 71 | 340 | 4.3 | 10.4 | 0.00 | 0.00 | 0.00 | 41 | 1012.2 |
| 20260505195931 | 72 | 332 | 2.6 | 10.4 | 0.00 | 0.00 | 0.00 | 40 | 1012.1 |
| 20260505195031 | 72 | 337 | 3.5 | 7.8 | 0.00 | 0.00 | 0.00 | 40 | 1012.0 |
| 20260505194131 | 72 | 339 | 4.3 | 7.8 | 0.00 | 0.00 | 0.00 | 40 | 1011.8 |
| 20260505193232 | 73 | 350 | 3.5 | 9.6 | 0.00 | 0.00 | 0.00 | 39 | 1011.8 |
| 20260505192331 | 73 | 352 | 3.5 | 9.6 | 0.00 | 0.00 | 0.00 | 38 | 1011.8 |
| 20260505191431 | 74 | 337 | 4.3 | 10.4 | 0.00 | 0.00 | 0.00 | 38 | 1011.7 |
| 20260505190552 | 75 | 332 | 3.5 | 9.6 | 0.00 | 0.00 | 0.00 | 36 | 1011.6 |
| 20260505185632 | 75 | 329 | 1.7 | 7.8 | 0.00 | 0.00 | 0.00 | 34 | 1011.4 |
| 20260505184752 | 76 | 336 | 2.6 | 7.0 | 0.00 | 0.00 | 0.00 | 34 | 1011.4 |
| 20260505183831 | 76 | 346 | 2.6 | 7.0 | 0.00 | 0.00 | 0.00 | 34 | 1011.4 |
| 20260505182931 | 76 | 354 | 3.5 | 7.8 | 0.00 | 0.00 | 0.00 | 34 | 1011.3 |
| 20260505182052 | 76 | 351 | 3.5 | 9.6 | 0.00 | 0.00 | 0.00 | 33 | 1011.3 |
| 20260505181131 | 76 | 348 | 2.6 | 9.6 | 0.00 | 0.00 | 0.00 | 33 | 1011.2 |
| 20260505180231 | 76 | 8 | 3.5 | 7.8 | 0.00 | 0.00 | 0.00 | 33 | 1011.4 |
| 20260505175331 | 77 | 333 | 3.5 | 8.7 | 0.00 | 0.00 | 0.00 | 33 | 1011.5 |
| 20260505174431 | 77 | 346 | 3.5 | 7.8 | 0.00 | 0.00 | 0.00 | 33 | 1011.4 |
| 20260505173531 | 77 | 349 | 2.6 | 9.6 | 0.00 | 0.00 | 0.00 | 33 | 1011.4 |
| 20260505172631 | 77 | 330 | 3.5 | 7.8 | 0.00 | 0.00 | 0.00 | 31 | 1011.5 |
| 20260505171731 | 77 | 359 | 3.5 | 8.7 | 0.00 | 0.00 | 0.00 | 31 | 1011.6 |
| 20260505170852 | 77 | 347 | 3.5 | 8.7 | 0.00 | 0.00 | 0.00 | 32 | 1011.6 |
| 20260505165931 | 77 | 348 | 3.5 | 9.6 | 0.00 | 0.00 | 0.00 | 31 | 1011.7 |
| 20260505165031 | 77 | 351 | 2.6 | 8.7 | 0.00 | 0.00 | 0.00 | 32 | 1011.7 |
| 20260505164132 | 77 | 46 | 2.6 | 7.0 | 0.00 | 0.00 | 0.00 | 32 | 1011.6 |
| 20260505163231 | 77 | 34 | 4.3 | 8.7 | 0.00 | 0.00 | 0.00 | 31 | 1011.8 |
| 20260505162331 | 76 | 358 | 4.3 | 10.4 | 0.00 | 0.00 | 0.00 | 31 | 1011.8 |
| 20260505161431 | 77 | 322 | 1.7 | 10.4 | 0.00 | 0.00 | 0.00 | 31 | 1011.8 |
| 20260505160531 | 78 | 360 | 1.7 | 5.2 | 0.00 | 0.00 | 0.00 | 30 | 1011.7 |
| 20260505152952 | 77 | 289 | 2.6 | 7.0 | 0.00 | 0.00 | 0.00 | 31 | 1011.9 |
| 20260505152030 | 76 | 329 | 2.6 | 7.8 | 0.00 | 0.00 | 0.00 | 31 | 1012.0 |
| 20260505151130 | 76 | 265 | 1.7 | 7.8 | 0.00 | 0.00 | 0.00 | 31 | 1012.1 |
| 20260505150230 | 76 | 267 | 0.9 | 3.5 | 0.00 | 0.00 | 0.00 | 33 | 1012.2 |
| 20260505124731 | 72 | 250 | 1.7 | 6.1 | 0.00 | 0.00 | 0.00 | 39 | 1013.5 |
| 20260505123830 | 71 | 231 | 3.5 | 6.1 | 0.00 | 0.00 | 0.00 | 40 | 1013.6 |
| 20260505122930 | 71 | 246 | 2.6 | 8.7 | 0.00 | 0.00 | 0.00 | 40 | 1013.7 |
| 20260505122030 | 72 | 275 | 3.5 | 9.6 | 0.00 | 0.00 | 0.00 | 40 | 1013.9 |
| 20260505121130 | 71 | 8 | 4.3 | 9.6 | 0.00 | 0.00 | 0.00 | 41 | 1014.1 |
| 20260505120230 | 70 | 342 | 3.5 | 10.4 | 0.00 | 0.00 | 0.00 | 41 | 1014.3 |
| 20260505115330 | 70 | 277 | 2.6 | 10.4 | 0.00 | 0.00 | 0.00 | 41 | 1014.4 |
| 20260505114430 | 70 | 321 | 1.7 | 7.8 | 0.00 | 0.00 | 0.00 | 42 | 1014.5 |
| 20260505113530 | 70 | 261 | 1.7 | 7.0 | 0.00 | 0.00 | 0.00 | 43 | 1014.6 |
| 20260505112630 | 69 | 277 | 2.6 | 8.7 | 0.00 | 0.00 | 0.00 | 43 | 1014.8 |
| 20260505111730 | 68 | 298 | 3.5 | 9.6 | 0.00 | 0.00 | 0.00 | 44 | 1014.8 |
| 20260505110830 | 68 | 347 | 1.7 | 8.7 | 0.00 | 0.00 | 0.00 | 44 | 1015.0 |
| 20260505101429 | 67 | 15 | 1.7 | 7.8 | 0.00 | 0.00 | 0.00 | 46 | 1015.2 |
| 20260505100530 | 66 | 349 | 1.7 | 6.1 | 0.00 | 0.00 | 0.00 | 48 | 1015.3 |
| 20260505095629 | 66 | 307 | 0.9 | 4.3 | 0.00 | 0.00 | 0.00 | 49 | 1015.3 |
| 20260505094730 | 65 | 324 | 2.6 | 5.2 | 0.00 | 0.00 | 0.00 | 51 | 1015.4 |
| 20260505093851 | 64 | 335 | 2.6 | 7.8 | 0.00 | 0.00 | 0.00 | 51 | 1015.4 |
| 20260505092950 | 64 | 335 | 2.6 | 7.8 | 0.00 | 0.00 | 0.00 | 52 | 1015.3 |
| 20260505092029 | 64 | 313 | 1.7 | 5.2 | 0.00 | 0.00 | 0.00 | 53 | 1015.3 |
| 20260505091150 | 64 | 331 | 0.9 | 5.2 | 0.00 | 0.00 | 0.00 | 53 | 1015.4 |
| 20260505090229 | 64 | 11 | 1.7 | 3.5 | 0.00 | 0.00 | 0.00 | 54 | 1015.5 |
| 20260505085329 | 63 | 329 | 1.7 | 7.8 | 0.00 | 0.00 | 0.00 | 54 | 1015.3 |
| 20260505084429 | 64 | 5 | 0.9 | 3.5 | 0.00 | 0.00 | 0.00 | 56 | 1015.4 |
| 20260505083529 | 63 | 23 | 0.9 | 4.3 | 0.00 | 0.00 | 0.00 | 57 | 1015.4 |
| 20260505082629 | 62 | 356 | 0.9 | 3.5 | 0.00 | 0.00 | 0.00 | 58 | 1015.5 |
| 20260505081729 | 62 | 358 | 0.9 | 4.3 | 0.00 | 0.00 | 0.00 | 58 | 1015.6 |
| 20260505080829 | 61 | 312 | 0.9 | 3.5 | 0.00 | 0.00 | 0.00 | 59 | 1015.5 |
| 20260505075929 | 61 | 343 | 1.7 | 5.2 | 0.00 | 0.00 | 0.00 | 59 | 1015.7 |
| 20260505075029 | 60 | 347 | 1.7 | 7.0 | 0.00 | 0.00 | 0.00 | 60 | 1015.7 |
| 20260505074129 | 60 | 331 | 1.7 | 4.3 | 0.00 | 0.00 | 0.00 | 60 | 1015.6 |
| 20260505073229 | 60 | 360 | 1.7 | 4.3 | 0.00 | 0.00 | 0.00 | 61 | 1015.6 |
| 20260505072329 | 60 | 19 | 1.7 | 4.3 | 0.00 | 0.00 | 0.00 | 61 | 1015.6 |
| 20260505071430 | 59 | 355 | 2.6 | 5.2 | 0.00 | 0.00 | 0.00 | 61 | 1015.6 |
| 20260505070529 | 59 | 17 | 2.6 | 7.0 | 0.00 | 0.00 | 0.00 | 62 | 1015.5 |
| 20260505065629 | 59 | 344 | 1.7 | 5.2 | 0.00 | 0.00 | 0.00 | 62 | 1015.5 |
| 20260505064750 | 59 | 356 | 1.7 | 4.3 | 0.00 | 0.00 | 0.00 | 62 | 1015.5 |
| 20260505063829 | 59 | 351 | 1.7 | 4.3 | 0.00 | 0.00 | 0.00 | 62 | 1015.5 |
| 20260505062929 | 59 | 346 | 1.7 | 4.3 | 0.00 | 0.00 | 0.00 | 62 | 1015.4 |
| 20260505062029 | 60 | 347 | 0.9 | 3.5 | 0.00 | 0.00 | 0.00 | 62 | 1015.3 |
| 20260505061129 | 59 | 340 | 0.9 | 2.6 | 0.00 | 0.00 | 0.00 | 63 | 1015.3 |
| 20260505060251 | 59 | 342 | 0.9 | 4.3 | 0.00 | 0.00 | 0.00 | 64 | 1015.2 |
| 20260505055350 | 59 | 4 | 0.0 | 3.5 | 0.00 | 0.00 | 0.00 | 63 | 1015.1 |
| 20260505054450 | 59 | 17 | 0.9 | 2.6 | 0.00 | 0.00 | 0.00 | 64 | 1014.9 |
| 20260505053529 | 59 | 15 | 0.9 | 4.3 | 0.00 | 0.00 | 0.00 | 64 | 1014.8 |
| 20260505052629 | 59 | 356 | 1.7 | 4.3 | 0.00 | 0.00 | 0.00 | 64 | 1014.8 |
| 20260505051729 | 59 | 19 | 1.7 | 6.1 | 0.00 | 0.00 | 0.00 | 63 | 1014.8 |
| 20260505050829 | 59 | 12 | 1.7 | 7.0 | 0.00 | 0.00 | 0.00 | 63 | 1014.6 |